START_TIME,STEP,MOV.,M35,t_acc.,PL05,t_acc.,PL06,t_acc.,PL07,t_acc.
1980-11-14 12:00:12.470 ,7,0,0.,4.8,0.,4.8,3.,4.8,0.,4.8
1980-11-14 12:00:17.270 ,7,0,0.,4.8,0.,4.8,3.,4.8,1.,4.8
1980-11-14 12:00:22.070 ,7,0,0.,4.8,0.,4.8,0.,4.8,0.,4.8
1980-11-14 12:00:26.870 ,7,0,0.,4.8,0.,4.8,0.,4.8,2.,4.8
1980-11-14 12:00:31.670 ,7,0,0.,4.8,0.,4.8,0.,4.8,1.,4.8
1980-11-14 12:00:36.470 ,7,0,0.,4.8,0.,4.8,3.,4.8,0.,4.8
1980-11-14 12:00:41.270 ,7,0,0.,4.8,0.,4.8,0.,4.8,0.,4.8
1980-11-14 12:00:46.070 ,7,0,0.,4.8,1.,4.8,0.,4.8,0.,4.8
1980-11-14 12:00:50.870 ,7,0,0.,4.8,0.,4.8,0.,4.8,1.,4.8
1980-11-14 12:00:55.670 ,7,0,0.,4.8,0.,4.8,0.,4.8,0.,4.8
1980-11-14 12:01:00.470 ,7,0,0.,4.8,1.,4.8,0.,4.8,0.,4.8
1980-11-14 12:01:05.270 ,7,0,0.,4.8,0.,4.8,1.,4.8,0.,4.8
1980-11-14 12:01:10.070 ,7,0,0.,4.8,1.,4.8,0.,4.8,0.,4.8
1980-11-14 12:01:14.870 ,7,0,0.,4.8,0.,4.8,0.,4.8,0.,4.8
1980-11-14 12:01:19.670 ,7,0,0.,4.8,1.,4.8,0.,4.8,0.,4.8
1980-11-14 12:01:24.470 ,6,0,0.,4.8,0.,4.8,0.,4.8,0.,4.8
1980-11-14 12:01:29.270 ,6,0,0.,4.8,1.,4.8,0.,4.8,0.,4.8
1980-11-14 12:01:34.070 ,6,0,0.,4.8,2.,4.8,0.,4.8,0.,4.8
1980-11-14 12:01:38.870 ,6,0,0.,4.8,1.,4.8,1.,4.8,0.,4.8
1980-11-14 12:01:43.670 ,6,0,0.,4.8,0.,4.8,0.,4.8,0.,4.8
1980-11-14 12:01:48.470 ,6,0,0.,4.8,1.,4.8,0.,4.8,1.,4.8
1980-11-14 12:01:53.270 ,6,0,0.,4.8,0.,4.8,0.,4.8,0.,4.8
1980-11-14 12:01:58.070 ,6,0,0.,4.8,3.,4.8,0.,4.8,0.,4.8
1980-11-14 12:02:02.870 ,6,0,0.,4.8,1.,4.8,0.,4.8,0.,4.8
1980-11-14 12:02:07.670 ,6,0,0.,4.8,0.,4.8,0.,4.8,0.,4.8
1980-11-14 12:02:12.470 ,5,0,0.,4.8,0.,4.8,0.,4.8,0.,4.8
1980-11-14 12:02:17.270 ,5,0,0.,4.8,0.,4.8,1.,4.8,0.,4.8
1980-11-14 12:02:22.070 ,5,0,0.,4.8,0.,4.8,0.,4.8,0.,4.8
1980-11-14 12:02:26.870 ,5,0,0.,4.8,2.,4.8,0.,4.8,0.,4.8
1980-11-14 12:02:31.670 ,5,0,0.,4.8,2.,4.8,0.,4.8,0.,4.8
1980-11-14 12:02:36.470 ,5,0,0.,4.8,0.,4.8,0.,4.8,0.,4.8
1980-11-14 12:02:41.270 ,5,0,0.,4.8,0.,4.8,0.,4.8,0.,4.8
1980-11-14 12:02:46.070 ,5,0,0.,4.8,1.,4.8,0.,4.8,0.,4.8
1980-11-14 12:02:50.870 ,5,0,0.,4.8,0.,4.8,0.,4.8,1.,4.8
1980-11-14 12:02:55.670 ,5,0,0.,4.8,1.,4.8,0.,4.8,0.,4.8
1980-11-14 12:03:00.470 ,4,0,0.,4.8,0.,4.8,0.,4.8,0.,4.8
1980-11-14 12:03:05.270 ,4,0,0.,4.8,0.,4.8,0.,4.8,0.,4.8
1980-11-14 12:03:10.070 ,4,0,0.,4.8,1.,4.8,0.,4.8,0.,4.8
1980-11-14 12:03:14.870 ,4,0,0.,4.8,0.,4.8,0.,4.8,0.,4.8
1980-11-14 12:03:19.670 ,4,0,0.,4.8,0.,4.8,0.,4.8,0.,4.8
1980-11-14 12:03:24.470 ,4,0,0.,4.8,0.,4.8,0.,4.8,0.,4.8
1980-11-14 12:03:29.270 ,4,0,0.,4.8,0.,4.8,0.,4.8,0.,4.8
1980-11-14 12:03:34.070 ,4,0,0.,4.8,0.,4.8,0.,4.8,0.,4.8
1980-11-14 12:03:38.870 ,4,0,0.,4.8,1.,4.8,0.,4.8,0.,4.8
1980-11-14 12:03:43.670 ,4,0,0.,4.8,2.,4.8,0.,4.8,0.,4.8
1980-11-14 12:03:48.470 ,3,0,0.,4.8,1.,4.8,0.,4.8,0.,4.8
1980-11-14 12:03:53.270 ,3,0,0.,4.8,0.,4.8,0.,4.8,0.,4.8
1980-11-14 12:03:58.070 ,3,0,0.,4.8,1.,4.8,0.,4.8,0.,4.8
1980-11-14 12:04:02.870 ,3,0,0.,4.8,2.,4.8,0.,4.8,0.,4.8
1980-11-14 12:04:07.670 ,3,0,0.,4.8,1.,4.8,0.,4.8,0.,4.8
1980-11-14 12:04:12.470 ,3,0,0.,4.8,0.,4.8,0.,4.8,0.,4.8
1980-11-14 12:04:17.270 ,3,0,0.,4.8,2.,4.8,0.,4.8,0.,4.8
1980-11-14 12:04:22.070 ,3,0,0.,4.8,1.,4.8,0.,4.8,0.,4.8
1980-11-14 12:04:26.870 ,3,0,0.,4.8,0.,4.8,0.,4.8,0.,4.8
1980-11-14 12:04:31.670 ,3,0,0.,4.8,4.,4.8,0.,4.8,0.,4.8
1980-11-14 12:04:36.470 ,2,0,0.,4.8,2.,4.8,0.,4.8,0.,4.8
1980-11-14 12:04:41.270 ,2,0,0.,4.8,2.,4.8,0.,4.8,1.,4.8
1980-11-14 12:04:46.070 ,2,0,0.,4.8,0.,4.8,0.,4.8,0.,4.8
1980-11-14 12:04:50.870 ,2,0,0.,4.8,0.,4.8,1.,4.8,0.,4.8
1980-11-14 12:04:55.670 ,2,0,0.,4.8,0.,4.8,0.,4.8,0.,4.8
1980-11-14 12:05:00.470 ,2,0,0.,4.8,1.,4.8,0.,4.8,0.,4.8
1980-11-14 12:05:05.270 ,2,0,0.,4.8,0.,4.8,0.,4.8,0.,4.8
1980-11-14 12:05:10.070 ,2,0,0.,4.8,0.,4.8,0.,4.8,0.,4.8
1980-11-14 12:05:14.870 ,2,0,0.,4.8,0.,4.8,0.,4.8,0.,4.8
1980-11-14 12:05:19.670 ,2,0,0.,4.8,0.,4.8,0.,4.8,1.,4.8
1980-11-14 12:05:24.470 ,1,0,0.,4.8,2.,4.8,0.,4.8,0.,4.8
1980-11-14 12:05:29.270 ,1,0,0.,4.8,0.,4.8,0.,4.8,0.,4.8
1980-11-14 12:05:34.070 ,1,0,0.,4.8,1.,4.8,0.,4.8,0.,4.8
1980-11-14 12:05:38.870 ,1,0,0.,4.8,2.,4.8,0.,4.8,0.,4.8
1980-11-14 12:05:43.670 ,1,0,0.,4.8,0.,4.8,0.,4.8,0.,4.8
1980-11-14 12:05:48.470 ,1,0,0.,4.8,2.,4.8,0.,4.8,0.,4.8
1980-11-14 12:05:53.270 ,1,0,0.,4.8,0.,4.8,0.,4.8,0.,4.8
1980-11-14 12:05:58.070 ,1,0,0.,4.8,1.,4.8,0.,4.8,0.,4.8
1980-11-14 12:06:02.870 ,1,0,0.,4.8,0.,4.8,0.,4.8,0.,4.8
1980-11-14 12:06:07.670 ,1,0,0.,4.8,0.,4.8,0.,4.8,0.,4.8
1980-11-14 12:06:12.470 ,0,0,0.,4.8,1.,4.8,0.,4.8,0.,4.8
1980-11-14 12:06:17.270 ,0,0,0.,4.8,2.,4.8,0.,4.8,0.,4.8
1980-11-14 12:06:22.070 ,0,0,0.,4.8,2.,4.8,0.,4.8,0.,4.8
1980-11-14 12:06:26.870 ,0,0,0.,4.8,0.,4.8,0.,4.8,0.,4.8
1980-11-14 12:06:31.670 ,0,0,0.,4.8,0.,4.8,0.,4.8,0.,4.8
1980-11-14 12:06:36.470 ,0,0,0.,4.8,0.,4.8,0.,4.8,0.,4.8
1980-11-14 12:06:41.270 ,0,0,0.,4.8,0.,4.8,0.,4.8,0.,4.8
1980-11-14 12:06:46.070 ,0,0,0.,4.8,1.,4.8,0.,4.8,0.,4.8
1980-11-14 12:06:50.870 ,0,0,0.,4.8,2.,4.8,0.,4.8,0.,4.8
1980-11-14 12:06:55.670 ,0,0,0.,4.8,0.,4.8,1.,4.8,0.,4.8
1980-11-14 12:07:00.470 ,0,0,0.,4.8,2.,4.8,1.,4.8,0.,4.8
1980-11-14 12:07:05.270 ,0,0,0.,4.8,0.,4.8,0.,4.8,0.,4.8
1980-11-14 12:07:10.070 ,0,0,0.,4.8,1.,4.8,0.,4.8,0.,4.8
1980-11-14 12:07:14.870 ,0,0,0.,4.8,1.,4.8,0.,4.8,0.,4.8
1980-11-14 12:07:19.670 ,0,0,0.,4.8,1.,4.8,0.,4.8,0.,4.8
1980-11-14 12:07:24.470 ,0,0,0.,4.8,0.,4.8,0.,4.8,0.,4.8
1980-11-14 12:07:29.270 ,0,0,0.,4.8,0.,4.8,0.,4.8,1.,4.8
1980-11-14 12:07:34.070 ,0,0,0.,4.8,0.,4.8,0.,4.8,0.,4.8
1980-11-14 12:07:38.870 ,0,0,0.,4.8,2.,4.8,0.,4.8,0.,4.8
1980-11-14 12:07:43.670 ,0,0,0.,4.8,1.,4.8,0.,4.8,0.,4.8
1980-11-14 12:07:48.470 ,1,0,0.,4.8,0.,4.8,0.,4.8,0.,4.8
1980-11-14 12:07:53.270 ,1,0,0.,4.8,0.,4.8,0.,4.8,0.,4.8
1980-11-14 12:07:58.070 ,1,0,0.,4.8,0.,4.8,0.,4.8,0.,4.8
1980-11-14 12:08:02.870 ,1,0,0.,4.8,1.,4.8,0.,4.8,0.,4.8
1980-11-14 12:08:07.670 ,1,0,0.,4.8,0.,4.8,0.,4.8,1.,4.8
1980-11-14 12:08:12.470 ,1,0,0.,4.8,0.,4.8,0.,4.8,0.,4.8
1980-11-14 12:08:17.270 ,1,0,0.,4.8,3.,4.8,1.,4.8,0.,4.8
1980-11-14 12:08:22.070 ,1,0,0.,4.8,1.,4.8,0.,4.8,0.,4.8
1980-11-14 12:08:26.870 ,1,0,0.,4.8,1.,4.8,1.,4.8,0.,4.8
1980-11-14 12:08:31.670 ,1,0,0.,4.8,2.,4.8,0.,4.8,0.,4.8
1980-11-14 12:08:36.470 ,2,0,0.,4.8,1.,4.8,0.,4.8,0.,4.8
1980-11-14 12:08:41.270 ,2,0,0.,4.8,2.,4.8,0.,4.8,0.,4.8
1980-11-14 12:08:46.070 ,2,0,0.,4.8,1.,4.8,0.,4.8,0.,4.8
1980-11-14 12:08:50.870 ,2,0,0.,4.8,0.,4.8,0.,4.8,0.,4.8
1980-11-14 12:08:55.670 ,2,0,0.,4.8,0.,4.8,1.,4.8,0.,4.8
1980-11-14 12:09:00.470 ,2,0,0.,4.8,2.,4.8,0.,4.8,0.,4.8
1980-11-14 12:09:05.270 ,2,0,0.,4.8,1.,4.8,0.,4.8,0.,4.8
1980-11-14 12:09:10.070 ,2,0,0.,4.8,1.,4.8,0.,4.8,0.,4.8
1980-11-14 12:09:14.870 ,2,0,0.,4.8,2.,4.8,0.,4.8,0.,4.8
1980-11-14 12:09:19.670 ,2,0,0.,4.8,0.,4.8,0.,4.8,0.,4.8
1980-11-14 12:09:24.470 ,3,0,0.,4.8,0.,4.8,0.,4.8,0.,4.8
1980-11-14 12:09:29.270 ,3,0,0.,4.8,1.,4.8,0.,4.8,0.,4.8
1980-11-14 12:09:34.070 ,3,0,0.,4.8,1.,4.8,0.,4.8,0.,4.8
1980-11-14 12:09:38.870 ,3,0,0.,4.8,1.,4.8,0.,4.8,0.,4.8
1980-11-14 12:09:43.670 ,3,0,0.,4.8,2.,4.8,0.,4.8,0.,4.8
1980-11-14 12:09:48.470 ,3,0,0.,4.8,2.,4.8,1.,4.8,0.,4.8
1980-11-14 12:09:53.270 ,3,0,0.,4.8,2.,4.8,0.,4.8,0.,4.8
1980-11-14 12:09:58.070 ,3,0,0.,4.8,1.,4.8,0.,4.8,0.,4.8
1980-11-14 12:10:02.870 ,3,0,0.,4.8,1.,4.8,0.,4.8,0.,4.8
1980-11-14 12:10:07.670 ,3,0,0.,4.8,0.,4.8,2.,4.8,0.,4.8
1980-11-14 12:10:12.470 ,4,0,0.,4.8,0.,4.8,1.,4.8,0.,4.8
1980-11-14 12:10:17.270 ,4,0,0.,4.8,3.,4.8,0.,4.8,0.,4.8
1980-11-14 12:10:22.070 ,4,0,0.,4.8,1.,4.8,0.,4.8,0.,4.8
1980-11-14 12:10:26.870 ,4,0,0.,4.8,0.,4.8,0.,4.8,0.,4.8
1980-11-14 12:10:31.670 ,4,0,0.,4.8,1.,4.8,0.,4.8,0.,4.8
1980-11-14 12:10:36.470 ,4,0,0.,4.8,0.,4.8,0.,4.8,0.,4.8
1980-11-14 12:10:41.270 ,4,0,0.,4.8,0.,4.8,0.,4.8,1.,4.8
1980-11-14 12:10:46.070 ,4,0,0.,4.8,0.,4.8,0.,4.8,0.,4.8
1980-11-14 12:10:50.870 ,4,0,0.,4.8,1.,4.8,0.,4.8,0.,4.8
1980-11-14 12:10:55.670 ,4,0,0.,4.8,2.,4.8,1.,4.8,0.,4.8
1980-11-14 12:11:00.470 ,5,0,0.,4.8,0.,4.8,0.,4.8,0.,4.8
1980-11-14 12:11:05.270 ,5,0,0.,4.8,1.,4.8,0.,4.8,0.,4.8
1980-11-14 12:11:10.070 ,5,0,0.,4.8,1.,4.8,0.,4.8,0.,4.8
1980-11-14 12:11:14.870 ,5,0,0.,4.8,2.,4.8,0.,4.8,0.,4.8
1980-11-14 12:11:19.670 ,5,0,0.,4.8,0.,4.8,0.,4.8,0.,4.8
1980-11-14 12:11:24.470 ,5,0,0.,4.8,1.,4.8,1.,4.8,0.,4.8
1980-11-14 12:11:29.270 ,5,0,0.,4.8,3.,4.8,0.,4.8,0.,4.8
1980-11-14 12:11:34.070 ,5,0,0.,4.8,0.,4.8,1.,4.8,0.,4.8
1980-11-14 12:11:38.870 ,5,0,0.,4.8,2.,4.8,0.,4.8,0.,4.8
1980-11-14 12:11:43.670 ,5,0,0.,4.8,2.,4.8,0.,4.8,0.,4.8
1980-11-14 12:11:48.470 ,6,0,0.,4.8,0.,4.8,0.,4.8,0.,4.8
1980-11-14 12:11:53.270 ,6,0,0.,4.8,1.,4.8,0.,4.8,0.,4.8
1980-11-14 12:11:58.070 ,6,0,0.,4.8,1.,4.8,0.,4.8,0.,4.8
1980-11-14 12:12:02.870 ,6,0,0.,4.8,0.,4.8,0.,4.8,0.,4.8
1980-11-14 12:12:07.670 ,6,0,0.,4.8,2.,4.8,0.,4.8,0.,4.8
1980-11-14 12:12:12.470 ,6,0,0.,4.8,0.,4.8,0.,4.8,0.,4.8
1980-11-14 12:12:17.270 ,6,0,0.,4.8,0.,4.8,0.,4.8,1.,4.8
1980-11-14 12:12:22.070 ,6,0,0.,4.8,0.,4.8,0.,4.8,0.,4.8
1980-11-14 12:12:26.870 ,6,0,0.,4.8,2.,4.8,0.,4.8,0.,4.8
1980-11-14 12:12:31.670 ,6,0,0.,4.8,0.,4.8,0.,4.8,0.,4.8
1980-11-14 12:12:36.470 ,7,0,0.,4.8,0.,4.8,0.,4.8,0.,4.8
1980-11-14 12:12:41.270 ,7,0,0.,4.8,1.,4.8,0.,4.8,0.,4.8
1980-11-14 12:12:46.070 ,7,0,0.,4.8,0.,4.8,0.,4.8,0.,4.8
1980-11-14 12:12:50.870 ,7,0,0.,4.8,0.,4.8,1.,4.8,0.,4.8
1980-11-14 12:12:55.670 ,7,0,0.,4.8,0.,4.8,0.,4.8,1.,4.8
1980-11-14 12:13:00.470 ,7,0,0.,4.8,1.,4.8,1.,4.8,0.,4.8
1980-11-14 12:13:05.270 ,7,0,0.,4.8,0.,4.8,1.,4.8,1.,4.8
1980-11-14 12:13:10.070 ,7,0,0.,4.8,0.,4.8,0.,4.8,0.,4.8
1980-11-14 12:13:14.870 ,7,0,0.,4.8,0.,4.8,0.,4.8,0.,4.8
1980-11-14 12:13:19.670 ,7,0,0.,4.8,0.,4.8,0.,4.8,1.,4.8
1980-11-14 12:13:24.470 ,7,0,0.,4.8,1.,4.8,0.,4.8,0.,4.8
1980-11-14 12:13:29.270 ,7,0,0.,4.8,1.,4.8,0.,4.8,1.,4.8
1980-11-14 12:13:34.070 ,7,0,0.,4.8,0.,4.8,1.,4.8,0.,4.8
1980-11-14 12:13:38.870 ,7,0,0.,4.8,0.,4.8,0.,4.8,1.,4.8
1980-11-14 12:13:43.670 ,7,0,0.,4.8,0.,4.8,1.,4.8,1.,4.8
1980-11-14 12:13:48.470 ,7,0,0.,4.8,0.,4.8,0.,4.8,0.,4.8
1980-11-14 12:13:53.270 ,7,0,0.,4.8,1.,4.8,1.,4.8,0.,4.8
1980-11-14 12:13:58.070 ,7,0,0.,4.8,0.,4.8,0.,4.8,0.,4.8
1980-11-14 12:14:02.870 ,7,0,0.,4.8,0.,4.8,1.,4.8,2.,4.8
1980-11-14 12:14:07.670 ,7,0,0.,4.8,0.,4.8,2.,4.8,0.,4.8
1980-11-14 12:14:12.470 ,6,0,0.,4.8,1.,4.8,0.,4.8,1.,4.8
1980-11-14 12:14:17.270 ,6,0,0.,4.8,0.,4.8,0.,4.8,0.,4.8
1980-11-14 12:14:22.070 ,6,0,0.,4.8,1.,4.8,0.,4.8,0.,4.8
1980-11-14 12:14:26.870 ,6,0,0.,4.8,1.,4.8,0.,4.8,0.,4.8
1980-11-14 12:14:31.670 ,6,0,0.,4.8,1.,4.8,0.,4.8,0.,4.8
1980-11-14 12:14:36.470 ,6,0,0.,4.8,0.,4.8,0.,4.8,1.,4.8
1980-11-14 12:14:41.270 ,6,0,0.,4.8,2.,4.8,0.,4.8,0.,4.8
1980-11-14 12:14:46.070 ,6,0,0.,4.8,0.,4.8,0.,4.8,0.,4.8
1980-11-14 12:14:50.870 ,6,0,0.,4.8,2.,4.8,0.,4.8,0.,4.8
1980-11-14 12:14:55.670 ,6,0,0.,4.8,2.,4.8,0.,4.8,0.,4.8
1980-11-14 12:15:00.470 ,5,0,0.,4.8,0.,4.8,0.,4.8,0.,4.8
1980-11-14 12:15:05.270 ,5,0,0.,4.8,0.,4.8,1.,4.8,0.,4.8
1980-11-14 12:15:10.070 ,5,0,0.,4.8,0.,4.8,0.,4.8,0.,4.8
1980-11-14 12:15:14.870 ,5,0,0.,4.8,2.,4.8,1.,4.8,0.,4.8
1980-11-14 12:15:19.670 ,5,0,0.,4.8,0.,4.8,0.,4.8,0.,4.8
1980-11-14 12:15:24.470 ,5,0,0.,4.8,0.,4.8,0.,4.8,0.,4.8
1980-11-14 12:15:29.270 ,5,0,0.,4.8,0.,4.8,0.,4.8,0.,4.8
1980-11-14 12:15:34.070 ,5,0,0.,4.8,2.,4.8,0.,4.8,0.,4.8
1980-11-14 12:15:38.870 ,5,0,0.,4.8,1.,4.8,0.,4.8,0.,4.8
1980-11-14 12:15:43.670 ,5,0,0.,4.8,2.,4.8,0.,4.8,0.,4.8
1980-11-14 12:15:48.470 ,4,0,0.,4.8,0.,4.8,0.,4.8,0.,4.8
1980-11-14 12:15:53.270 ,4,0,0.,4.8,3.,4.8,0.,4.8,0.,4.8
1980-11-14 12:15:58.070 ,4,0,0.,4.8,0.,4.8,0.,4.8,0.,4.8
1980-11-14 12:16:02.870 ,4,0,0.,4.8,1.,4.8,0.,4.8,0.,4.8
1980-11-14 12:16:07.670 ,4,0,0.,4.8,1.,4.8,0.,4.8,0.,4.8
1980-11-14 12:16:12.470 ,4,0,0.,4.8,0.,4.8,1.,4.8,0.,4.8
1980-11-14 12:16:17.270 ,4,0,0.,4.8,0.,4.8,0.,4.8,0.,4.8
1980-11-14 12:16:22.070 ,4,0,0.,4.8,0.,4.8,0.,4.8,0.,4.8
1980-11-14 12:16:26.870 ,4,0,0.,4.8,1.,4.8,0.,4.8,0.,4.8
1980-11-14 12:16:31.670 ,4,0,0.,4.8,0.,4.8,0.,4.8,0.,4.8
1980-11-14 12:16:36.470 ,3,0,0.,4.8,0.,4.8,0.,4.8,0.,4.8
1980-11-14 12:16:41.270 ,3,0,0.,4.8,1.,4.8,0.,4.8,0.,4.8
1980-11-14 12:16:46.070 ,3,0,0.,4.8,1.,4.8,0.,4.8,0.,4.8
1980-11-14 12:16:50.870 ,3,0,0.,4.8,1.,4.8,0.,4.8,0.,4.8
1980-11-14 12:16:55.670 ,3,0,0.,4.8,0.,4.8,0.,4.8,0.,4.8
1980-11-14 12:17:00.470 ,3,0,0.,4.8,1.,4.8,0.,4.8,0.,4.8
1980-11-14 12:17:05.270 ,3,0,0.,4.8,0.,4.8,0.,4.8,0.,4.8
1980-11-14 12:17:10.070 ,3,0,0.,4.8,0.,4.8,0.,4.8,0.,4.8
1980-11-14 12:17:14.870 ,3,0,0.,4.8,1.,4.8,0.,4.8,0.,4.8
1980-11-14 12:17:19.670 ,3,0,0.,4.8,2.,4.8,0.,4.8,0.,4.8
1980-11-14 12:17:24.470 ,2,0,0.,4.8,2.,4.8,0.,4.8,0.,4.8
1980-11-14 12:17:29.270 ,2,0,0.,4.8,2.,4.8,0.,4.8,0.,4.8
1980-11-14 12:17:34.070 ,2,0,0.,4.8,0.,4.8,0.,4.8,0.,4.8
1980-11-14 12:17:38.870 ,2,0,0.,4.8,0.,4.8,0.,4.8,1.,4.8
1980-11-14 12:17:43.670 ,2,0,0.,4.8,0.,4.8,0.,4.8,0.,4.8
1980-11-14 12:17:48.470 ,2,0,0.,4.8,0.,4.8,0.,4.8,0.,4.8
1980-11-14 12:17:53.270 ,2,0,0.,4.8,0.,4.8,0.,4.8,0.,4.8
1980-11-14 12:17:58.070 ,2,0,0.,4.8,0.,4.8,0.,4.8,0.,4.8
1980-11-14 12:18:02.870 ,2,0,0.,4.8,3.,4.8,0.,4.8,0.,4.8
1980-11-14 12:18:07.670 ,2,0,0.,4.8,1.,4.8,0.,4.8,0.,4.8
1980-11-14 12:18:12.470 ,1,0,0.,4.8,0.,4.8,1.,4.8,0.,4.8
1980-11-14 12:18:17.270 ,1,0,0.,4.8,1.,4.8,0.,4.8,0.,4.8
1980-11-14 12:18:22.070 ,1,0,0.,4.8,1.,4.8,0.,4.8,0.,4.8
1980-11-14 12:18:26.870 ,1,0,0.,4.8,2.,4.8,0.,4.8,0.,4.8
1980-11-14 12:18:31.670 ,1,0,0.,4.8,0.,4.8,0.,4.8,0.,4.8
1980-11-14 12:18:36.470 ,1,0,0.,4.8,0.,4.8,0.,4.8,0.,4.8
1980-11-14 12:18:41.270 ,1,0,0.,4.8,2.,4.8,0.,4.8,0.,4.8
1980-11-14 12:18:46.070 ,1,0,0.,4.8,0.,4.8,0.,4.8,0.,4.8
1980-11-14 12:18:50.870 ,1,0,0.,4.8,1.,4.8,0.,4.8,0.,4.8
1980-11-14 12:18:55.670 ,1,0,0.,4.8,0.,4.8,0.,4.8,0.,4.8
1980-11-14 12:19:00.470 ,0,0,0.,4.8,1.,4.8,0.,4.8,0.,4.8
1980-11-14 12:19:05.270 ,0,0,0.,4.8,1.,4.8,1.,4.8,0.,4.8
1980-11-14 12:19:10.070 ,0,0,0.,4.8,1.,4.8,0.,4.8,0.,4.8
1980-11-14 12:19:14.870 ,0,0,0.,4.8,4.,4.8,0.,4.8,0.,4.8
1980-11-14 12:19:19.670 ,0,0,0.,4.8,0.,4.8,0.,4.8,0.,4.8
1980-11-14 12:19:24.470 ,0,0,0.,4.8,0.,4.8,1.,4.8,0.,4.8
1980-11-14 12:19:29.270 ,0,0,0.,4.8,1.,4.8,0.,4.8,0.,4.8
1980-11-14 12:19:34.070 ,0,0,0.,4.8,0.,4.8,0.,4.8,0.,4.8
1980-11-14 12:19:38.870 ,0,0,0.,4.8,0.,4.8,0.,4.8,0.,4.8
1980-11-14 12:19:43.670 ,0,0,0.,4.8,0.,4.8,0.,4.8,0.,4.8
1980-11-14 12:19:48.470 ,0,0,0.,4.8,0.,4.8,0.,4.8,0.,4.8
1980-11-14 12:19:53.270 ,0,0,0.,4.8,0.,4.8,0.,4.8,0.,4.8
1980-11-14 12:19:58.070 ,0,0,0.,4.8,1.,4.8,0.,4.8,0.,4.8
1980-11-14 12:20:02.870 ,0,0,0.,4.8,2.,4.8,0.,4.8,0.,4.8
1980-11-14 12:20:07.670 ,0,0,0.,4.8,1.,4.8,0.,4.8,0.,4.8
1980-11-14 12:20:12.470 ,0,0,0.,4.8,2.,4.8,0.,4.8,0.,4.8
1980-11-14 12:20:17.270 ,0,0,0.,4.8,1.,4.8,1.,4.8,0.,4.8
1980-11-14 12:20:22.070 ,0,0,0.,4.8,0.,4.8,0.,4.8,0.,4.8
1980-11-14 12:20:26.870 ,0,0,0.,4.8,3.,4.8,0.,4.8,0.,4.8
1980-11-14 12:20:31.670 ,0,0,0.,4.8,0.,4.8,1.,4.8,0.,4.8
1980-11-14 12:20:36.470 ,1,0,0.,4.8,0.,4.8,0.,4.8,0.,4.8
1980-11-14 12:20:41.270 ,1,0,0.,4.8,2.,4.8,0.,4.8,0.,4.8
1980-11-14 12:20:46.070 ,1,0,0.,4.8,0.,4.8,0.,4.8,0.,4.8
1980-11-14 12:20:50.870 ,1,0,0.,4.8,1.,4.8,0.,4.8,0.,4.8
1980-11-14 12:20:55.670 ,1,0,0.,4.8,2.,4.8,0.,4.8,0.,4.8
1980-11-14 12:21:00.470 ,1,0,0.,4.8,0.,4.8,1.,4.8,1.,4.8
1980-11-14 12:21:05.270 ,1,0,0.,4.8,1.,4.8,0.,4.8,0.,4.8
1980-11-14 12:21:10.070 ,1,0,0.,4.8,0.,4.8,0.,4.8,1.,4.8
1980-11-14 12:21:14.870 ,1,0,0.,4.8,0.,4.8,0.,4.8,0.,4.8
1980-11-14 12:21:19.670 ,1,0,0.,4.8,2.,4.8,0.,4.8,0.,4.8
1980-11-14 12:21:24.470 ,2,0,0.,4.8,0.,4.8,0.,4.8,1.,4.8
1980-11-14 12:21:29.270 ,2,0,0.,4.8,0.,4.8,0.,4.8,0.,4.8
1980-11-14 12:21:34.070 ,2,0,0.,4.8,1.,4.8,0.,4.8,0.,4.8
1980-11-14 12:21:38.870 ,2,0,0.,4.8,1.,4.8,0.,4.8,0.,4.8
1980-11-14 12:21:43.670 ,2,0,0.,4.8,1.,4.8,0.,4.8,0.,4.8
1980-11-14 12:21:48.470 ,2,0,0.,4.8,3.,4.8,0.,4.8,0.,4.8
1980-11-14 12:21:53.270 ,2,0,0.,4.8,1.,4.8,1.,4.8,0.,4.8
1980-11-14 12:21:58.070 ,2,0,0.,4.8,1.,4.8,0.,4.8,0.,4.8
1980-11-14 12:22:02.870 ,2,0,0.,4.8,1.,4.8,0.,4.8,0.,4.8
1980-11-14 12:22:07.670 ,2,0,0.,4.8,1.,4.8,0.,4.8,0.,4.8
1980-11-14 12:22:12.470 ,3,0,0.,4.8,0.,4.8,0.,4.8,0.,4.8
1980-11-14 12:22:17.270 ,3,0,0.,4.8,1.,4.8,0.,4.8,0.,4.8
1980-11-14 12:22:22.070 ,3,0,0.,4.8,0.,4.8,0.,4.8,1.,4.8
1980-11-14 12:22:26.870 ,3,0,0.,4.8,1.,4.8,0.,4.8,1.,4.8
1980-11-14 12:22:31.670 ,3,0,0.,4.8,1.,4.8,1.,4.8,0.,4.8
1980-11-14 12:22:36.470 ,3,0,0.,4.8,1.,4.8,0.,4.8,0.,4.8
1980-11-14 12:22:41.270 ,3,0,0.,4.8,0.,4.8,0.,4.8,0.,4.8
1980-11-14 12:22:46.070 ,3,0,0.,4.8,1.,4.8,0.,4.8,0.,4.8
1980-11-14 12:22:50.870 ,3,0,0.,4.8,1.,4.8,0.,4.8,0.,4.8
1980-11-14 12:22:55.670 ,3,0,0.,4.8,3.,4.8,0.,4.8,1.,4.8
1980-11-14 12:23:00.470 ,4,0,0.,4.8,0.,4.8,0.,4.8,0.,4.8
1980-11-14 12:23:05.270 ,4,0,0.,4.8,1.,4.8,0.,4.8,0.,4.8
1980-11-14 12:23:10.070 ,4,0,0.,4.8,1.,4.8,0.,4.8,0.,4.8
1980-11-14 12:23:14.870 ,4,0,0.,4.8,2.,4.8,0.,4.8,1.,4.8
1980-11-14 12:23:19.670 ,4,0,0.,4.8,0.,4.8,0.,4.8,0.,4.8
1980-11-14 12:23:24.470 ,4,0,0.,4.8,1.,4.8,1.,4.8,0.,4.8
1980-11-14 12:23:29.270 ,4,0,0.,4.8,3.,4.8,1.,4.8,0.,4.8
1980-11-14 12:23:34.070 ,4,0,0.,4.8,0.,4.8,0.,4.8,0.,4.8
1980-11-14 12:23:38.870 ,4,0,0.,4.8,2.,4.8,0.,4.8,0.,4.8
1980-11-14 12:23:43.670 ,4,0,0.,4.8,0.,4.8,0.,4.8,0.,4.8
1980-11-14 13:35:48.470 ,0,0,0.,4.8,0.,4.8,0.,4.8,0.,4.8
1980-11-14 13:35:53.270 ,0,0,0.,4.8,2.,4.8,0.,4.8,0.,4.8
1980-11-14 13:35:58.070 ,0,0,0.,4.8,0.,4.8,0.,4.8,0.,4.8
1980-11-14 13:36:02.870 ,0,0,0.,4.8,2.,4.8,0.,4.8,0.,4.8
1980-11-14 13:36:07.670 ,0,0,0.,4.8,0.,4.8,1.,4.8,0.,4.8
1980-11-14 13:36:12.470 ,0,0,0.,4.8,0.,4.8,0.,4.8,0.,4.8
1980-11-14 13:36:17.270 ,0,0,0.,4.8,0.,4.8,0.,4.8,0.,4.8
1980-11-14 13:36:22.070 ,0,0,0.,4.8,3.,4.8,0.,4.8,0.,4.8
1980-11-14 13:36:26.870 ,0,0,0.,4.8,0.,4.8,0.,4.8,0.,4.8
1980-11-14 13:36:31.670 ,0,0,0.,4.8,1.,4.8,0.,4.8,1.,4.8
1980-11-14 13:36:36.470 ,0,0,0.,4.8,0.,4.8,0.,4.8,0.,4.8
1980-11-14 13:36:41.270 ,0,0,0.,4.8,0.,4.8,0.,4.8,0.,4.8
1980-11-14 13:36:46.070 ,0,0,0.,4.8,0.,4.8,0.,4.8,0.,4.8
1980-11-14 13:36:50.870 ,0,0,0.,4.8,0.,4.8,0.,4.8,0.,4.8
1980-11-14 13:36:55.670 ,0,0,0.,4.8,1.,4.8,1.,4.8,0.,4.8
1980-11-14 13:37:00.470 ,0,0,0.,4.8,0.,4.8,1.,4.8,0.,4.8
1980-11-14 13:37:05.270 ,0,0,0.,4.8,0.,4.8,0.,4.8,0.,4.8
1980-11-14 13:37:10.070 ,0,0,0.,4.8,3.,4.8,1.,4.8,0.,4.8
1980-11-14 13:37:14.870 ,0,0,0.,4.8,0.,4.8,0.,4.8,0.,4.8
1980-11-14 13:37:19.670 ,0,0,0.,4.8,1.,4.8,0.,4.8,1.,4.8
1980-11-14 13:37:24.470 ,1,0,0.,4.8,2.,4.8,0.,4.8,0.,4.8
1980-11-14 13:37:29.270 ,1,0,0.,4.8,0.,4.8,0.,4.8,0.,4.8
1980-11-14 13:37:34.070 ,1,0,0.,4.8,1.,4.8,0.,4.8,0.,4.8
1980-11-14 13:37:38.870 ,1,0,0.,4.8,0.,4.8,0.,4.8,0.,4.8
1980-11-14 13:37:43.670 ,1,0,0.,4.8,1.,4.8,0.,4.8,1.,4.8
1980-11-14 13:37:48.470 ,1,0,0.,4.8,1.,4.8,0.,4.8,0.,4.8
1980-11-14 13:37:53.270 ,1,0,0.,4.8,2.,4.8,0.,4.8,1.,4.8
1980-11-14 13:37:58.070 ,1,0,0.,4.8,6.,4.8,0.,4.8,0.,4.8
1980-11-14 13:38:02.870 ,1,0,0.,4.8,0.,4.8,0.,4.8,0.,4.8
1980-11-14 13:38:07.670 ,1,0,0.,4.8,0.,4.8,0.,4.8,0.,4.8
1980-11-14 13:38:12.470 ,2,0,0.,4.8,1.,4.8,0.,4.8,0.,4.8
1980-11-14 13:38:17.270 ,2,0,0.,4.8,0.,4.8,0.,4.8,0.,4.8
1980-11-14 13:38:22.070 ,2,0,0.,4.8,0.,4.8,0.,4.8,0.,4.8
1980-11-14 13:38:26.870 ,2,0,0.,4.8,0.,4.8,0.,4.8,0.,4.8
1980-11-14 13:38:31.670 ,2,0,0.,4.8,2.,4.8,0.,4.8,1.,4.8
1980-11-14 13:38:36.470 ,2,0,0.,4.8,1.,4.8,0.,4.8,0.,4.8
1980-11-14 13:38:41.270 ,2,0,0.,4.8,0.,4.8,0.,4.8,0.,4.8
1980-11-14 13:38:46.070 ,2,0,0.,4.8,0.,4.8,1.,4.8,1.,4.8
1980-11-14 13:38:50.870 ,2,0,0.,4.8,2.,4.8,0.,4.8,0.,4.8
1980-11-14 13:38:55.670 ,2,0,0.,4.8,0.,4.8,0.,4.8,0.,4.8
1980-11-14 13:39:00.470 ,3,0,0.,4.8,0.,4.8,0.,4.8,0.,4.8
1980-11-14 13:39:05.270 ,3,0,0.,4.8,0.,4.8,0.,4.8,0.,4.8
1980-11-14 13:39:10.070 ,3,0,0.,4.8,1.,4.8,0.,4.8,0.,4.8
1980-11-14 13:39:14.870 ,3,0,0.,4.8,2.,4.8,0.,4.8,0.,4.8
1980-11-14 13:39:19.670 ,3,0,0.,4.8,0.,4.8,0.,4.8,0.,4.8
1980-11-14 13:39:24.470 ,3,0,0.,4.8,0.,4.8,0.,4.8,0.,4.8
1980-11-14 13:39:29.270 ,3,0,0.,4.8,0.,4.8,0.,4.8,0.,4.8
1980-11-14 13:39:34.070 ,3,0,0.,4.8,1.,4.8,0.,4.8,0.,4.8
1980-11-14 13:39:38.870 ,3,0,0.,4.8,0.,4.8,1.,4.8,0.,4.8
1980-11-14 13:39:43.670 ,3,0,0.,4.8,0.,4.8,0.,4.8,0.,4.8
1980-11-14 13:39:48.470 ,4,0,0.,4.8,1.,4.8,0.,4.8,0.,4.8
1980-11-14 13:39:53.270 ,4,0,0.,4.8,1.,4.8,0.,4.8,0.,4.8
1980-11-14 13:39:58.070 ,4,0,0.,4.8,0.,4.8,0.,4.8,0.,4.8
1980-11-14 13:40:02.870 ,4,0,0.,4.8,1.,4.8,0.,4.8,0.,4.8
1980-11-14 13:40:07.670 ,4,0,0.,4.8,0.,4.8,0.,4.8,0.,4.8
1980-11-14 13:40:12.470 ,4,0,0.,4.8,1.,4.8,0.,4.8,1.,4.8
1980-11-14 13:40:17.270 ,4,0,0.,4.8,0.,4.8,0.,4.8,0.,4.8
1980-11-14 13:40:22.070 ,4,0,0.,4.8,0.,4.8,0.,4.8,0.,4.8
1980-11-14 13:40:26.870 ,4,0,0.,4.8,0.,4.8,0.,4.8,0.,4.8
1980-11-14 13:40:31.670 ,4,0,0.,4.8,1.,4.8,1.,4.8,0.,4.8
1980-11-14 13:40:36.470 ,5,0,0.,4.8,2.,4.8,0.,4.8,0.,4.8
1980-11-14 13:40:41.270 ,5,0,0.,4.8,1.,4.8,0.,4.8,0.,4.8
1980-11-14 13:40:46.070 ,5,0,0.,4.8,2.,4.8,0.,4.8,0.,4.8
1980-11-14 13:40:50.870 ,5,0,0.,4.8,1.,4.8,0.,4.8,0.,4.8
1980-11-14 13:40:55.670 ,5,0,0.,4.8,1.,4.8,1.,4.8,0.,4.8
1980-11-14 13:41:00.470 ,5,0,0.,4.8,2.,4.8,0.,4.8,0.,4.8
1980-11-14 13:41:05.270 ,5,0,0.,4.8,0.,4.8,1.,4.8,0.,4.8
1980-11-14 13:41:10.070 ,5,0,0.,4.8,1.,4.8,0.,4.8,0.,4.8
1980-11-14 13:41:14.870 ,5,0,0.,4.8,0.,4.8,0.,4.8,0.,4.8
1980-11-14 13:41:19.670 ,5,0,0.,4.8,0.,4.8,0.,4.8,0.,4.8
1980-11-14 13:41:24.470 ,6,0,0.,4.8,0.,4.8,0.,4.8,0.,4.8
1980-11-14 13:41:29.270 ,6,0,0.,4.8,0.,4.8,0.,4.8,0.,4.8
1980-11-14 13:41:34.070 ,6,0,0.,4.8,0.,4.8,0.,4.8,0.,4.8
1980-11-14 13:41:38.870 ,6,0,0.,4.8,1.,4.8,0.,4.8,0.,4.8
1980-11-14 13:41:43.670 ,6,0,0.,4.8,0.,4.8,0.,4.8,0.,4.8
1980-11-14 13:41:48.470 ,6,0,0.,4.8,2.,4.8,0.,4.8,0.,4.8
1980-11-14 13:41:53.270 ,6,0,0.,4.8,0.,4.8,0.,4.8,0.,4.8
1980-11-14 13:41:58.070 ,6,0,0.,4.8,0.,4.8,0.,4.8,0.,4.8
1980-11-14 13:42:02.870 ,6,0,0.,4.8,0.,4.8,0.,4.8,0.,4.8
1980-11-14 13:42:07.670 ,6,0,0.,4.8,0.,4.8,0.,4.8,0.,4.8
1980-11-14 13:42:12.470 ,7,0,0.,4.8,0.,4.8,0.,4.8,0.,4.8
1980-11-14 13:42:17.270 ,7,0,0.,4.8,0.,4.8,0.,4.8,0.,4.8
1980-11-14 13:42:22.070 ,7,0,0.,4.8,0.,4.8,0.,4.8,0.,4.8
1980-11-14 13:42:26.870 ,7,0,0.,4.8,1.,4.8,1.,4.8,0.,4.8
1980-11-14 13:42:31.670 ,7,0,0.,4.8,0.,4.8,0.,4.8,0.,4.8
1980-11-14 13:42:36.470 ,7,0,0.,4.8,0.,4.8,0.,4.8,0.,4.8
1980-11-14 13:42:41.270 ,7,0,0.,4.8,0.,4.8,0.,4.8,0.,4.8
1980-11-14 13:42:46.070 ,7,0,0.,4.8,1.,4.8,0.,4.8,0.,4.8
1980-11-14 13:42:50.870 ,7,0,0.,4.8,0.,4.8,1.,4.8,0.,4.8
1980-11-14 13:42:55.670 ,7,0,0.,4.8,0.,4.8,0.,4.8,0.,4.8
1980-11-14 13:43:00.470 ,7,0,0.,4.8,1.,4.8,0.,4.8,0.,4.8
1980-11-14 13:43:05.270 ,7,0,0.,4.8,0.,4.8,2.,4.8,2.,4.8
1980-11-14 13:43:10.070 ,7,0,0.,4.8,0.,4.8,0.,4.8,1.,4.8
1980-11-14 13:43:14.870 ,7,0,0.,4.8,0.,4.8,2.,4.8,0.,4.8
1980-11-14 13:43:19.670 ,7,0,0.,4.8,1.,4.8,1.,4.8,0.,4.8
1980-11-14 13:43:24.470 ,7,0,0.,4.8,0.,4.8,1.,4.8,0.,4.8
1980-11-14 13:43:29.270 ,7,0,0.,4.8,1.,4.8,0.,4.8,1.,4.8
1980-11-14 13:43:34.070 ,7,0,0.,4.8,1.,4.8,0.,4.8,0.,4.8
1980-11-14 13:43:38.870 ,7,0,0.,4.8,0.,4.8,0.,4.8,0.,4.8
1980-11-14 13:43:43.670 ,7,0,0.,4.8,1.,4.8,1.,4.8,0.,4.8
1980-11-14 13:43:48.470 ,6,0,0.,4.8,0.,4.8,1.,4.8,1.,4.8
1980-11-14 13:43:53.270 ,6,0,0.,4.8,0.,4.8,0.,4.8,1.,4.8
1980-11-14 13:43:58.070 ,6,0,0.,4.8,2.,4.8,0.,4.8,0.,4.8
1980-11-14 13:44:02.870 ,6,0,0.,4.8,1.,4.8,0.,4.8,0.,4.8
1980-11-14 13:44:07.670 ,6,0,0.,4.8,0.,4.8,0.,4.8,0.,4.8
1980-11-14 13:44:12.470 ,6,0,0.,4.8,0.,4.8,0.,4.8,0.,4.8
1980-11-14 13:44:17.270 ,6,0,0.,4.8,0.,4.8,0.,4.8,0.,4.8
1980-11-14 13:44:22.070 ,6,0,0.,4.8,0.,4.8,1.,4.8,0.,4.8
1980-11-14 13:44:26.870 ,6,0,0.,4.8,1.,4.8,0.,4.8,0.,4.8
1980-11-14 13:44:31.670 ,6,0,0.,4.8,0.,4.8,1.,4.8,0.,4.8
1980-11-14 13:44:36.470 ,5,0,0.,4.8,1.,4.8,0.,4.8,0.,4.8
1980-11-14 13:44:41.270 ,5,0,0.,4.8,0.,4.8,0.,4.8,0.,4.8
1980-11-14 13:44:46.070 ,5,0,0.,4.8,1.,4.8,0.,4.8,0.,4.8
1980-11-14 13:44:50.870 ,5,0,0.,4.8,3.,4.8,0.,4.8,0.,4.8
1980-11-14 13:44:55.670 ,5,0,0.,4.8,0.,4.8,0.,4.8,0.,4.8
1980-11-14 13:45:00.470 ,5,0,0.,4.8,0.,4.8,0.,4.8,0.,4.8
1980-11-14 13:45:05.270 ,5,0,0.,4.8,1.,4.8,0.,4.8,0.,4.8